Home > Weather > Avellino > Past weeks

Flag for Italy Past Weather in Avellino, Italy — Yesterday and Last 2 Weeks

Now
63 °F

Clear.


Feels Like: 63 °F
Forecast: 62 / 87 °F
Wind: 10 mph from Northwest

Location: Trevico

Current Time: Jun 29, 2016 at 11:55:25 PM

Latest Report: Jun 29, 2016 at 10:55 PM


Visibility: 10 mi

Pressure: 30.09 "Hg

Humidity: 100%

Dew Point: 63 °F

Location of AvellinoLocation

Past Weather in Avellino — Graph

°F

Avellino Temperature Yesterday

Maximum temperature yesterday: 66 °F (at 10:55 AM)
Minimum temperature yesterday: 57 °F (at 4:55 AM)
Average temperature yesterday: 63 °F

High & Low Weather Summary for the Past Weeks

 TemperatureHumidityPressure
High81 °F (Jun 16, 12:55 PM)100% (Jun 14, 9:55 PM)30.27 "Hg (Jun 14, 9:55 PM)
Low48 °F (Jun 20, 5:55 AM)26% (Jun 16, 12:55 PM)29.71 "Hg (Jun 15, 2:55 AM)
Average64 °F70%30.07 "Hg
* Reported Jun 14 9:55 PM — Jun 29 9:55 PM, Avellino, Weather by CustomWeather, © 2016

Note: Actual official high and low records may vary slightly from our data, if they occured in-between our weather recording intervals... More about our weather records

Advertising

Avellino Weather History for the Previous 24 Hours

Scroll right to see more
 ConditionsComfort  
Time TempWeatherWind HumidityBarometerVisibility
9:55 PM
Wed, Jun 29
66 °FClear.8 mph88%30.09 "Hg10 mi
8:55 PM66 °FSunny.6 mph56%30.09 "Hg10 mi
7:55 PM68 °FSunny.6 mph56%30.07 "Hg10 mi
6:55 PM72 °FSunny.3 mph41%30.09 "Hg10 mi
5:55 PM72 °FSunny.2 mph41%30.09 "Hg10 mi
4:55 PM73 °FSunny.3 mph38%30.09 "Hg10 mi
3:55 PM72 °FSunny.5 mph38%30.07 "Hg10 mi
2:55 PM70 °FSunny.5 mph38%30.07 "Hg10 mi
1:55 PM68 °FSunny.6 mph43%30.09 "Hg10 mi
12:55 PM68 °FSunny.6 mph43%30.09 "Hg10 mi
11:55 AM66 °FSunny.5 mph46%30.12 "Hg10 mi
10:55 AM66 °FSunny.5 mph49%30.12 "Hg10 mi
9:55 AM66 °FSunny.3 mph49%30.09 "Hg10 mi
8:55 AM64 °FSunny.3 mph46%30.09 "Hg10 mi
7:55 AM59 °FSunny.3 mph55%30.09 "Hg10 mi
6:55 AM57 °FSunny.6 mph55%30.09 "Hg10 mi
5:55 AM57 °FClear.7 mph51%30.09 "Hg10 mi
4:55 AM57 °FPassing clouds.13 mph55%30.09 "HgN/A
3:55 AM57 °FPassing clouds.12 mph55%30.09 "HgN/A
2:55 AM59 °FPassing clouds.6 mph42%30.09 "HgN/A
1:55 AM59 °FPassing clouds.6 mph42%30.09 "HgN/A
12:55 AM59 °FPassing clouds.7 mph42%30.09 "HgN/A
11:55 PM
Tue, Jun 28
61 °FPassing clouds.8 mph39%30.09 "HgN/A
Weather by CustomWeather, © 2016

See weather overviewHow to use our weather pages